Flag for Canada Weather past 2 weeks in Granby, Quebec, Canada

Now
39 °F

Chilly.


Feels Like: 39 °F
Forecast: 32 / 39 °F
Wind: 2 mph from South

Location: Frelighsburg

Current Time: Dec 27, 2014 at 12:21:21 PM

Latest Report: Dec 27, 2014 at 12:00 PM


Visibility: N/A

Pressure: 30.11 "Hg

Humidity: 79%

Dew point: 33 °F

Location of GranbyLocation

Historic Weather in Granby — Graph

°F

Granby temperature yesterday

Maximum temperature yesterday: 39 °F (at 12:00 AM)
Minimum temperature yesterday: 35 °F (at 6:00 PM)
Average temperature yesterday: 37 °F

Past Weeks' High & Low Weather Summary

 TemperatureHumidityPressure
High52 °F (Dec 25, 5:00 AM)100% (Dec 13, 8:00 AM)30.39 "Hg (Dec 13, 8:00 AM)
Low12 °F (Dec 20, 2:00 AM)61% (Dec 25, 4:00 PM)29.24 "Hg (Dec 25, 4:00 AM)
Average29 °F93%30.00 "Hg
* Reported Dec 12 11:00 AM — Dec 27 11:00 AM, Granby, Weather by CustomWeather, © 2014

Note: Actual official high and low records may vary slightly from our data, if they occured in-between our weather recording intervals... More about our weather records

Advertising

Granby weather history for previous 24 hours

 ConditionsComfort  
Time TempWeatherWind HumidityBarometerVisibility
11:00 AM
Dec 27
39 °FChilly.1 mph75%30.13 "HgN/A
10:00 AM38 °FChilly.1 mph78%30.16 "HgN/A
9:00 AM37 °FChilly.1 mph82%30.16 "HgN/A
8:00 AM35 °FChilly.2 mph87%30.15 "HgN/A
7:00 AM34 °FChilly.2 mph90%30.14 "HgN/A
6:00 AM35 °FChilly.3 mph88%30.12 "HgN/A
5:00 AM36 °FChilly.3 mph85%30.12 "HgN/A
4:00 AM35 °FChilly.1 mph88%30.10 "HgN/A
3:00 AM35 °FChilly.2 mph86%30.10 "HgN/A
2:00 AM36 °FChilly.2 mph83%30.09 "HgN/A
1:00 AM37 °FChilly.3 mph80%30.08 "HgN/A
12:00 AM36 °FChilly.2 mph83%30.08 "HgN/A
11:00 PM
Dec 26
37 °FChilly.5 mph82%30.10 "HgN/A
10:00 PM36 °FChilly.2 mph79%30.10 "HgN/A
9:00 PM37 °FChilly.3 mph76%30.10 "HgN/A
8:00 PM37 °FChilly.5 mph73%30.10 "HgN/A
7:00 PM35 °FChilly.2 mph78%30.10 "HgN/A
6:00 PM35 °FChilly.2 mph78%30.09 "HgN/A
5:00 PM36 °FChilly.1 mph74%30.08 "HgN/A
4:00 PM37 °FChilly.2 mph72%30.08 "HgN/A
3:00 PM38 °FChilly.5 mph69%30.08 "HgN/A
2:00 PM38 °FChilly.6 mph68%30.07 "HgN/A
1:00 PM38 °FChilly.5 mph72%30.06 "HgN/A
12:00 PM38 °FChilly.3 mph73%30.08 "HgN/A
Weather by CustomWeather, © 2014

See weather overviewHow to use our weather pages